[Iaude] MPEC A22: 2024 AH [a=1.99,e=0.57,i=4.2,H=23.9]
    mpec at marsden.cfa.harvard.edu 
    mpec at marsden.cfa.harvard.edu
       
    Wed Jan  3 01:00:50 EST 2024
    
    
  
M.P.E.C. 2024-A22                               Issued 2024 January 3, 05:59 UT
     The Minor Planet Electronic Circulars contain information on unusual
         minor planets, routine data on comets and natural satellites,
         and occasional editorial announcements.  They are published
    on behalf of Division F of the International Astronomical Union by the
          Minor Planet Center, Smithsonian Astrophysical Observatory,
                          Cambridge, MA 02138, U.S.A.
			  
             Prepared using the Tamkin Foundation Computer Network
                              MPC at CFA.HARVARD.EDU
            URL https://www.minorplanetcenter.net/    ISSN 1523-6714
                                    2024 AH                                     
Observations:
     K24A00H*1C2024 01 01.43411908 20 06.490+49 53 56.47         19.50GVEA022G96
     K24A00H 1C2024 01 01.43988208 20 05.046+49 53 25.73         19.94GVEA022G96
     K24A00H 1C2024 01 01.44562808 20 03.595+49 52 55.13         19.40GVEA022G96
     K24A00H 1C2024 01 01.45138208 20 02.105+49 52 24.31         19.39GVEA022G96
     K24A00H mC2024 01 01.50729408 19 48.400+49 47 22.96         19.51GVEA022I52
     K24A00H mC2024 01 01.51257308 19 47.161+49 46 53.94         19.80GVEA022I52
     K24A00H mC2024 01 01.52016508 19 45.390+49 46 13.19         19.89GVEA022I52
     K24A00H mC2024 01 01.52048508 19 45.368+49 46 11.10         19.89GVEA022I52
     K24A00H KC2024 01 01.83590 08 18 59.51 +49 19 22.3                VEA022204
     K24A00H KC2024 01 01.84514 08 18 57.67 +49 18 40.6                VEA022204
     K24A00H KC2024 01 01.85382 08 18 55.92 +49 18 01.2          19.8 GVEA022204
     K24A00H KC2024 01 01.90681208 18 44.39 +49 14 05.5          20.0 GVEA022L01
     K24A00H KC2024 01 01.90933608 18 43.83 +49 13 53.6          19.9 GVEA022L01
     K24A00H KC2024 01 01.91186008 18 43.32 +49 13 42.3          19.8 GVEA022L01
     K24A00H KC2024 01 02.05992 08 18 10.86 +49 02 16.1          19.5 GVEA022104
     K24A00H KC2024 01 02.06520 08 18 09.72 +49 01 50.8          19.0 GVEA022104
     K24A00H KC2024 01 02.07035 08 18 08.58 +49 01 25.6                VEA022104
     K24A00H  C2024 01 03.21702408 15 10.792+47 38 21.21         20.0 GVEA022H01
     K24A00H  C2024 01 03.22542808 15 09.288+47 37 49.80         19.8 GVEA022H01
     K24A00H  C2024 01 03.23084708 15 08.308+47 37 29.52         19.7 GVEA022H01
     K24A00H  C2024 01 03.23865008 15 06.892+47 37 00.24         19.5 GVEA022H01
Observer details:
104 San Marcello Pistoiese.  Observers P. Bacci, M. Maestripieri.  Measurer P.
    Bacci.  0.60-m f/4.0 reflector + CCD.
204 Schiaparelli Observatory.  Observers L. Buzzi, G. Galli.  0.84-m f/3.5
    reflector + CCD.
G96 Mt. Lemmon Survey.  Observer K. W. Wierzchos.  Measurers E. C. Beshore, D.
    Fay, J. B. Fazekas, D. C. Fuls, A. R. Gibbs, A. D. Grauer, H. Groeller, J.
    K. Hogan, R. A. Kowalski, S. M. Larson, G. J. Leonard, D. Rankin, R. L.
    Seaman, F. C. Shelly, K. W. Wierzchos.  1.5-m reflector + 10K CCD.
H01 Magdalena Ridge Observatory, Socorro.  Observers W. H. Ryan, E. V. Ryan.
    Measurer W. H. Ryan.  2.4-m f/8.9 Ritchey-Chretien + CCD.
I52 Steward Observatory, Mt. Lemmon Station.  Observer G. J. Leonard.
    Measurers E. C. Beshore, D. Fay, J. B. Fazekas, D. C. Fuls, A. R. Gibbs,
    A. D. Grauer, H. Groeller, J. K. Hogan, R. A. Kowalski, S. M. Larson, G.
    J. Leonard, D. Rankin, R. L. Seaman, F. C. Shelly, K. W. Wierzchos.  1.0-m
    prime focus + CCD.
L01 Visnjan Observatory, Tican.  Observer K. Korlevic.  1.0-m f/2.9 reflector
    + CCD.
Orbital elements:
2024 AH                                                  Earth MOID = 0.0243 AU
Epoch 2023 Sept. 13.0 TT = JDT 2460200.5                MPC                     
M 336.89387              (2000.0)            P               Q                  
n   0.35079127     Peri.  331.89791     +0.74473041     -0.66378742             
a   1.9911480      Node    69.86332     +0.62524416     +0.65782846             
e   0.5651301      Incl.    4.21543     +0.23333744     +0.35587634             
P   2.81           H   23.90          G   0.15           U   8                  
Residuals in seconds of arc
240101 G96  0.1-  0.0     240101 I52  0.4+  0.0     240102 104 (3.7+  2.9+)
240101 G96  0.1+  0.1-    240101 204  0.2+  0.2-    240102 104 (4.2+  2.7+)
240101 G96  0.2+  0.0     240101 204  0.3+  0.1-    240102 104 (4.3+  2.1+)
240101 G96  0.1-  0.0     240101 204  0.3+  0.2-    240103 H01  0.1+  0.0
240101 I52  0.2-  0.1+    240101 L01  0.2-  0.2+    240103 H01  0.0   0.0
240101 I52  0.1-  0.2-    240101 L01  0.3-  0.1-    240103 H01  0.0   0.0
240101 I52  0.1-  0.3+    240101 L01  0.1+  0.1+    240103 H01  0.0   0.0
Ephemeris:
2024 AH                  a,e,i = 1.99, 0.57, 4                   q = 0.8659
Date    TT    R. A. (2000) Decl.     Delta      r    Elong.  Phase     V
2023 12 04    19 36 51.9 -23 37 41   0.1262  0.8942    40.9   133.8    25.3
...
2023 12 19    19 02 40.8 +20 31 25   0.02905 0.9647    47.9   130.9    21.9
...
2023 12 27    09 02 38.7 +63 02 41   0.04649 1.0151   132.0    46.0    19.0
...
2024 01 02    08 18 22.5 +49 06 52   0.08567 1.0571   148.2    29.3    20.0
2024 01 03    08 15 37.3 +47 53 06   0.09257 1.0644   149.9    27.6    20.1
2024 01 04    08 13 16.8 +46 48 37   0.09955 1.0717   151.4    26.1    20.2
...
2024 01 10    08 03 59.0 +42 21 32   0.1429  1.1171   157.9    19.3    20.9
...
2024 01 18    07 57 26.8 +38 55 19   0.2051  1.1804   161.8    15.1    21.7
...
2024 02 02    07 53 47.9 +34 55 50   0.3386  1.3038   157.0    17.2    23.0
A. U. Tomatic                (C) Copyright 2024 MPC           M.P.E.C. 2024-A22
    
    
More information about the Iaude
mailing list